Regional Weather Roundup
Issued by NWS

Home | Current Version | Previous Version | Text Only | Print | Product List | Glossary Off
Versions: 1 2 3 4 5 6 7 8 9 10 11 12 13 14 15 16 17 18 19 20 21 22 23 24 25 26 27 28 29 30 31 32 33 34 35 36 37 38 39 40 41 42 43 44 45 46 47 48 49 50

000
ASUS43 KIND 261359
RWRIN

WEATHER ROUNDUP FOR INDIANA
NATIONAL WEATHER SERVICE INDIANAPOLIS IN
1000 AM EDT FRI MAY 26 2017

NOTE: "FAIR" INDICATES FEW OR NO CLOUDS BELOW 12,000 FEET WITH NO
SIGNIFICANT WEATHER AND/OR OBSTRUCTIONS TO VISIBILITY.

* - STATION DOES NOT REPORT WEATHER SUCH AS PRECIPITATION OR FOG.

+ - STATION NOT QUALITY CONTROLLED BY THE NATIONAL WEATHER SERVICE.
    USE DATA WITH CAUTION...ESPECIALLY DEWPOINT AND RELATIVE
    HUMIDITY OBSERVATIONS.

INZ001>003-010>013-019-020-261500-
NORTHWEST INDIANA

CITY           SKY/WX    TMP DP  RH WIND       PRES   REMARKS
GARY /AIRPORT/ MOSUNNY   64  52  63 VRB3      29.88S
MICHIGAN CITY+ SUNNY     61  55  82 CALM      29.89R
MONTICELLO +   CLOUDY    62  53  73 CALM      29.90R
RENSSELAER +   MOSUNNY   63  52  67 SE5       29.90R

$$

LMZ046-743>745-261500-
SOUTHERN LAKE MICHIGAN

STATION/POSITION TIME  TEMP    WIND        PRES    WAVE
                       AIR SEA DIR/SP/G            HT
                 (UTC) (F)     (DEG/KT/KT) (MB)    (FT)
BURNS HARBOR     1340   59      50/  4/  6 1012.5R
MICHIGAN CITY    1330   55      20/  3/  3   N/A
5NW MICH CITY    1340   53 52   40/  2/  2   N/A     2

$$

INZ004-005-014>016-021>024-261500-
NORTH CENTRAL INDIANA

CITY           SKY/WX    TMP DP  RH WIND       PRES   REMARKS
ELKHART        MOSUNNY   57  54  88 CALM      29.88S
GOSHEN         SUNNY     59  51  75 NW3       29.88S
SOUTH BEND     SUNNY     61  54  77 CALM      29.88F

$$

INZ006>009-017-018-025>027-261500-
NORTHEAST INDIANA

CITY           SKY/WX    TMP DP  RH WIND       PRES   REMARKS
ANGOLA *+      CLOUDY    55  52  88 CALM      29.88R
FORT WAYNE     MOSUNNY   61  53  75 W7        29.90R
KENDALLVILLE + CLOUDY    56  54  90 W6        29.89R

$$

INZ028-029-035-036-043>045-051>053-261500-
WEST CENTRAL INDIANA

CITY           SKY/WX    TMP DP  RH WIND       PRES   REMARKS
CRAWFORDSVL +  CLOUDY    64  61  90 S5        29.91R
GREENCASTLE +  CLOUDY    66  55  68 S5        29.92R
LAFAYETTE      CLOUDY    62  58  86 S3        29.90R
TERRE HAUTE    SUNNY     67  58  72 S8        29.91R

$$

INZ030>032-037>040-046>048-054>057-064-065-261500-
CENTRAL INDIANA

CITY           SKY/WX    TMP DP  RH WIND       PRES   REMARKS
ANDERSON       SUNNY     64  55  72 W3        29.91S
COLUMBUS       SUNNY     64  57  77 S6        29.92S
INDIANAPOLIS   PTSUNNY   65  57  75 S5        29.91S
-EAGLE CREEK   MOSUNNY   65  56  72 CALM      29.90S
KOKOMO +       MOSUNNY   62  53  72 W5        29.92R
SHELBYVILLE    MOSUNNY   66  56  70 S6        29.91S

$$

INZ033-034-041-042-049-050-058-059-261500-
EAST CENTRAL INDIANA

CITY           SKY/WX    TMP DP  RH WIND       PRES   REMARKS
MUNCIE         SUNNY     64  54  69 W6        29.91R

$$

INZ060-061-067>069-081>083-085>088-261500-
SOUTHWEST INDIANA

CITY           SKY/WX    TMP DP  RH WIND       PRES   REMARKS
EVANSVILLE     MOSUNNY   73  57  57 SW8       29.93R
HUNTINGBURG *+ CLOUDY    67  59  75 S7        29.94R

$$

INZ062-063-066-070>080-084-089>092-261500-
SOUTH CENTRAL AND SOUTHEAST INDIANA

CITY           SKY/WX    TMP DP  RH WIND       PRES   REMARKS
BLOOMINGTON    SUNNY     67  56  67 SW8       29.93R
MADISON *+     SUNNY     66  55  68 SW5       29.96S
SEYMOUR +      CLOUDY    66  57  72 S3        29.93S

$$





USA.gov is the U.S. government's official web portal to all federal, state and local government web resources and services.